Home > Weather > Ostrava > Past weeks

Flag for Czech Republic Past Weather in Ostrava, Czech Republic — Yesterday and Last 2 Weeks

Now
80 °F

Partly sunny.


Feels Like: 80 °F
Forecast: 62 / 81 °F
Wind: 5 mph from Southwest

Location: Ostrava / Mosnov

Current Time: Jul 29, 2016 at 4:07:46 PM

Latest Report: Jul 29, 2016 at 3:00 PM


Visibility: 19 mi

Pressure: 29.90 "Hg

Humidity: 48%

Dew Point: 58 °F

Location of OstravaLocation

Past Weather in Ostrava — Graph

°F

Ostrava Temperature Yesterday

Maximum temperature yesterday: 76 °F (at 3:00 PM)
Minimum temperature yesterday: 65 °F (at 3:00 AM)
Average temperature yesterday: 70 °F

High & Low Weather Summary for the Past Weeks

 TemperatureHumidityPressure
High83 °F (Jul 23, 4:00 PM)100% (Jul 29, 6:00 AM)30.22 "Hg (Jul 29, 6:00 AM)
Low52 °F (Jul 15, 2:00 AM)43% (Jul 23, 5:00 PM)29.71 "Hg (Jul 14, 3:00 PM)
Average68 °F78%30.04 "Hg
* Reported Jul 14 3:00 PM — Jul 29 3:00 PM, Ostrava, Weather by CustomWeather, © 2016

Note: Actual official high and low records may vary slightly from our data, if they occured in-between our weather recording intervals... More about our weather records

Advertising

Ostrava Weather History for the Previous 24 Hours

Scroll right to see more
 ConditionsComfort  
Time TempWeatherWind HumidityBarometerVisibility
3:00 PM
Fri, Jul 29
80 °FPartly sunny.5 mph48%29.90 "Hg19 mi
2:00 PM80 °FPartly sunny.8 mph57%29.90 "Hg19 mi
1:00 PM78 °FPartly sunny.9 mph60%29.91 "Hg19 mi
12:00 PM78 °FPartly sunny.7 mph57%29.91 "Hg19 mi
11:00 AM79 °FScattered clouds.5 mph54%29.93 "Hg16 mi
10:00 AM76 °FScattered clouds.3 mph66%29.94 "Hg9 mi
9:00 AM72 °FScattered clouds.3 mph80%29.95 "Hg7 mi
8:00 AM64 °FFog.3 mph100%29.97 "Hg3 mi
7:00 AM62 °FFog.2 mph100%29.97 "Hg0 mi
6:00 AM60 °FFog.2 mph100%29.98 "Hg0 mi
5:00 AM60 °FFog.3 mph99%29.97 "Hg3 mi
2:00 AM62 °FPassing clouds.2 mph98%29.97 "Hg6 mi
1:00 AM64 °FPassing clouds.N/A95%29.97 "Hg7 mi
11:00 PM
Thu, Jul 28
66 °FPassing clouds.2 mph90%29.98 "Hg9 mi
8:00 PM72 °FOvercast.N/A79%29.96 "Hg16 mi
5:00 PM75 °FOvercast.3 mph70%29.96 "Hg16 mi
Weather by CustomWeather, © 2016

See weather overviewHow to use our weather pages